Address 0x4067e1b64b1b31f7424bf60dac671264244a76bc

 
 
Txn Hash Method
Block
From
To
Value [Txn Fee]
0x558283cab87fe31c7dc979aecbd040029577ab348b926236620f7908fa76d686Update Operator129157912021-11-24 11:04:4513 days 4 hrs agoPrivacySwap: DeployerOUT 0xa8d9f2df2b642136be09fe6d8d5497bbf7350bab0 BNB0.00022673
0x79fa7952373dfbb05d31b40a93bb1cb47d906be1fc4042ead484aa3227e10feaEnable Custom De...128935332021-11-23 15:39:0513 days 23 hrs agoPrivacySwap: DeployerOUT 0x871b25ab88fde0f2ef677c0e0912aa730c881a2c0 BNB0.00032647
0x74459cb147bf70251982727d8ef62177c5189bdfd5500459c283c2f0d3dff813Enable Custom De...128935292021-11-23 15:38:5313 days 23 hrs agoPrivacySwap: DeployerOUT 0x871b25ab88fde0f2ef677c0e0912aa730c881a2c0 BNB0.00032647
0x9ebdcd5175f2b6182672139f9dc2706fd32b7f17211da0d602a2bbf5dadc8685Enable Custom De...128935242021-11-23 15:38:3813 days 23 hrs agoPrivacySwap: DeployerOUT 0x871b25ab88fde0f2ef677c0e0912aa730c881a2c0 BNB0.00032647
0xddab1b6c7e45210a3bb15e399fb5122e25514b08f1d7bfdd8581328b5b7e7354Enable Custom De...128935182021-11-23 15:38:2013 days 23 hrs agoPrivacySwap: DeployerOUT 0x871b25ab88fde0f2ef677c0e0912aa730c881a2c0 BNB0.00032647
0x470f38a9ed8c7ab0701eed6bff9450519cbc501e2c625d550c0580f4936534c5Enable Custom De...128934812021-11-23 15:36:2913 days 23 hrs agoPrivacySwap: DeployerOUT 0xdacb4a770c291f00a88f40e6e8efd49bfdf781980 BNB0.000326095
0xbb9a8e577fdfeea20b426a3c29fcbaeb5f180c7d16e144058803dfc0bc16f412Enable Custom De...128934752021-11-23 15:36:1113 days 23 hrs agoPrivacySwap: DeployerOUT 0xdacb4a770c291f00a88f40e6e8efd49bfdf781980 BNB0.000326095
0xb904f152ec4a578267a6ec4f26f075d3625d337b7c78a33df7d007baeb766959Enable Custom De...128934652021-11-23 15:35:4113 days 23 hrs agoPrivacySwap: DeployerOUT 0xdacb4a770c291f00a88f40e6e8efd49bfdf781980 BNB0.000326095
0x1543d6dabf2e829572e98e3f2fb4614c4d7e46e8015173c058ae143244fa43e6Enable Custom De...128934532021-11-23 15:35:0513 days 23 hrs agoPrivacySwap: DeployerOUT 0xdacb4a770c291f00a88f40e6e8efd49bfdf781980 BNB0.000326095
0x61e2227c79fe61b17325021fc9024c5f11f4c18343786400c60c5a4162e9a8b2Manage Special U...128933422021-11-23 15:29:1614 days agoPrivacySwap: DeployerOUT 0xa8d9f2df2b642136be09fe6d8d5497bbf7350bab0 BNB0.00022547
0xeca6056a6d902341683fa53b34cd10bc759f1f87bbf8d7669feda5ab29414916Manage Special U...128933362021-11-23 15:28:5814 days 1 min agoPrivacySwap: DeployerOUT 0xa8d9f2df2b642136be09fe6d8d5497bbf7350bab0 BNB0.00012947
0xb5037a85f4810b54dd634c096c3e86e885fec43710d0102a88f6f260f438225dManage Special U...128933272021-11-23 15:28:3114 days 1 min agoPrivacySwap: DeployerOUT 0xa8d9f2df2b642136be09fe6d8d5497bbf7350bab0 BNB0.00022547
0xb405de982e3ab20fa7182282cfbb776961b2f87254b884312ae8edc7948f98abManage Special U...128933142021-11-23 15:27:5214 days 2 mins agoPrivacySwap: DeployerOUT 0xa8d9f2df2b642136be09fe6d8d5497bbf7350bab0 BNB0.00012947
0x7a0474155743e04d2baf323747f52c9254da92053f191896cf04cc5d1c3b55d3Manage Special U...128933072021-11-23 15:27:3114 days 2 mins agoPrivacySwap: DeployerOUT 0xa8d9f2df2b642136be09fe6d8d5497bbf7350bab0 BNB0.00022547
0x0a2d0b6b3eedde922d88f9d092e3241e03813546382b75ef8eb76daaa2fbb438Manage Special U...128932922021-11-23 15:26:4614 days 3 mins agoPrivacySwap: DeployerOUT 0xa8d9f2df2b642136be09fe6d8d5497bbf7350bab0 BNB0.00022547
0xc8566b27e3097c426e5388e3596df8c2447adc3c586bb644b400b5c56b9cd5d0Enable Custom De...128932812021-11-23 15:26:1314 days 4 mins agoPrivacySwap: DeployerOUT 0x871b25ab88fde0f2ef677c0e0912aa730c881a2c0 BNB0.00032647
0x805d0113c8ef97e20b93f7d71999a925ae56b9f89296f4f56a141beec6b4f36fEnable Custom De...128932712021-11-23 15:25:4314 days 4 mins agoPrivacySwap: DeployerOUT 0xdacb4a770c291f00a88f40e6e8efd49bfdf781980 BNB0.000326095
0x0fb6a1878e53e531b0487b8fd1bbeb510d2efc663713f1e2362e236ccaf52a47Manage Special U...128932622021-11-23 15:25:1614 days 4 mins agoPrivacySwap: DeployerOUT 0xa8d9f2df2b642136be09fe6d8d5497bbf7350bab0 BNB0.00022547
0x337c96d1300073b48a4f8013f0459118971a92fdcd5f569e02cce1ee8a279261Enable Custom De...128926172021-11-23 14:49:3014 days 40 mins agoPrivacySwap: DeployerOUT 0x871b25ab88fde0f2ef677c0e0912aa730c881a2c0 BNB0.00013447
0x904847bc64b952b6016ae05135b0d8466dc35cb0bb7682391062e7ebb8509eeaEnable Custom De...128926122021-11-23 14:49:1514 days 40 mins agoPrivacySwap: DeployerOUT 0xdacb4a770c291f00a88f40e6e8efd49bfdf781980 BNB0.000134095
0x95ca870503f7340fd1cec6a3dab6bc370577082213d1ab4a3708be8aa11ace54Manage Special U...128925672021-11-23 14:46:4214 days 43 mins agoPrivacySwap: DeployerOUT 0xa8d9f2df2b642136be09fe6d8d5497bbf7350bab0 BNB0.00012947
0xd4d6913a2dda50bca81d31379e0b9114c457ed167485b8650448243c5e25be15Add Or Remove Mi...128698862021-11-22 19:21:3714 days 20 hrs agoPrivacySwap: DeployerOUT 0x774ad968f8f3801739bcbc970f833c664d28511d0 BNB0.00022543
0x68dfacf49a25389d016a587712d554cca354ab66d1d6532f3f0b59f98a7edf50Update Operator128698352021-11-22 19:19:0314 days 20 hrs agoPrivacySwap: DeployerOUT 0xa8d9f2df2b642136be09fe6d8d5497bbf7350bab0 BNB0.00022673
0x301a37324e1f09dadca22b0389c8f168d2c73965956ed2373110109a3d930af3Update Operator128698282021-11-22 19:18:4214 days 20 hrs agoPrivacySwap: DeployerOUT 0xa8d9f2df2b642136be09fe6d8d5497bbf7350bab0 BNB0.00022673
0x328af1dd84524ced383d9b10bfe5e984506e8da0f4fa5ab971887929b4feba87Enable Custom De...128683932021-11-22 18:03:4814 days 21 hrs agoPrivacySwap: DeployerOUT 0x871b25ab88fde0f2ef677c0e0912aa730c881a2c0 BNB0.00032647
[ Download CSV Export 

OVERVIEW

Deployer address for PrivacySwap.

Latest 5 internal transactions
Parent Txn Hash Block From To Value
0xbd250a99893db43a1a29b4a53b11cd4a49f06570ed52d1b255065e468474cf66126982932021-11-16 14:12:3821 days 1 hr ago PancakeSwap: Router v2PrivacySwap: Deployer0.00962041188389642 BNB
0xcd93a7ced4020b952285747657946d743c13b48fe919d49541ce3005e05c3480126982442021-11-16 14:10:0221 days 1 hr ago PancakeSwap: Router v2PrivacySwap: Deployer162 BNB
0xe4dd5b86415a0d35db046335598a91cd34b6c586f987ab533a7ffc5e3c62e907120810122021-10-25 14:48:3343 days 41 mins ago PancakeSwap: Router v2PrivacySwap: Deployer0.638426825739528791 BNB
0x5a1538f09eda177b0f9423a2c17be2f332deca9398527f96b7a26c15743972c7120810032021-10-25 14:48:0643 days 42 mins ago PancakeSwap: Router v2PrivacySwap: Deployer0.715268698971910587 BNB
0x8f0b014cf168d38f62a78a6a73365db863fc8aacf3a0c4a5946a218164962153118000392021-10-15 17:44:5152 days 21 hrs ago PancakeSwap: Router v2PrivacySwap: Deployer2.351651149576996092 BNB
[ Download CSV Export 
Loading

Contract Name:
0 BNB

Compiler Version
0

Optimization Enabled:
0 BNB

Other Settings:
-NA-
Block Transaction Gas Used Reward
Age Block Fee Address BC Fee Address Voting Power Jailed Incoming
Block Uncle Number Difficulty Gas Used Reward
Loading
Loading
Make sure to use the "Vote Down" button for any spammy posts, and the "Vote Up" for interesting conversations.